�N����,�����b,���ԉ��x,���Ԏ��x,��󒲎�,����,�����W
2003/7/1,0:00:00,24.4 ,72.9 ,23.1 ,21.2 ,24.7 
2003/7/1,0:15:00,24.4 ,73.5 ,23.1 ,21.0 ,24.7 
2003/7/1,0:30:00,24.4 ,73.2 ,23.1 ,21.0 ,24.6 
2003/7/1,0:45:00,24.4 ,73.2 ,23.1 ,21.0 ,24.6 
2003/7/1,1:00:00,24.3 ,72.9 ,23.1 ,21.1 ,24.6 
2003/7/1,1:15:00,24.3 ,73.0 ,23.1 ,21.1 ,24.5 
2003/7/1,1:30:00,24.3 ,72.8 ,23.1 ,21.2 ,24.4 
2003/7/1,1:45:00,24.2 ,72.7 ,23.0 ,21.2 ,24.3 
2003/7/1,2:00:00,24.2 ,72.7 ,23.0 ,21.2 ,24.3 
2003/7/1,2:15:00,24.2 ,72.7 ,23.0 ,21.3 ,24.2 
2003/7/1,2:30:00,24.2 ,72.8 ,23.0 ,21.3 ,24.1 
2003/7/1,2:45:00,24.1 ,72.6 ,23.0 ,21.4 ,24.1 
2003/7/1,3:00:00,24.1 ,72.6 ,23.0 ,21.4 ,24.2 
2003/7/1,3:15:00,24.1 ,72.6 ,23.0 ,21.4 ,24.2 
2003/7/1,3:30:00,24.1 ,72.6 ,23.0 ,21.5 ,24.1 
2003/7/1,3:45:00,24.0 ,72.5 ,23.0 ,21.5 ,24.0 
2003/7/1,4:00:00,24.0 ,72.5 ,22.9 ,21.6 ,23.9 
2003/7/1,4:15:00,24.0 ,72.4 ,22.9 ,21.6 ,23.9 
2003/7/1,4:30:00,24.0 ,72.3 ,22.9 ,21.7 ,23.9 
2003/7/1,4:45:00,23.9 ,72.2 ,22.9 ,21.7 ,23.9 
2003/7/1,5:00:00,23.9 ,72.3 ,22.9 ,21.7 ,23.8 
2003/7/1,5:15:00,23.9 ,72.2 ,22.9 ,21.8 ,23.8 
2003/7/1,5:30:00,23.9 ,72.3 ,22.8 ,21.8 ,23.7 
2003/7/1,5:45:00,23.9 ,72.3 ,22.8 ,21.8 ,23.7 
2003/7/1,6:00:00,23.9 ,72.4 ,22.8 ,21.8 ,23.8 
2003/7/1,6:15:00,23.9 ,72.4 ,22.8 ,21.9 ,23.8 
2003/7/1,6:30:00,23.9 ,72.4 ,22.8 ,20.9 ,23.8 
2003/7/1,6:45:00,23.9 ,72.6 ,22.8 ,20.9 ,23.7 
2003/7/1,7:00:00,23.9 ,72.4 ,22.8 ,20.7 ,23.8 
2003/7/1,7:15:00,24.0 ,72.8 ,22.8 ,20.8 ,23.8 
2003/7/1,7:30:00,24.1 ,72.8 ,22.8 ,20.8 ,24.3 
2003/7/1,7:45:00,24.2 ,72.6 ,22.8 ,20.9 ,25.0 
2003/7/1,8:00:00,24.1 ,73.2 ,22.8 ,20.9 ,24.9 
2003/7/1,8:15:00,24.0 ,73.4 ,22.9 ,21.0 ,24.6 
2003/7/1,8:30:00,24.0 ,73.6 ,22.9 ,21.1 ,24.4 
2003/7/1,8:45:00,24.1 ,73.8 ,22.9 ,21.1 ,24.4 
2003/7/1,9:00:00,24.0 ,74.7 ,22.9 ,21.1 ,24.4 
2003/7/1,9:15:00,24.0 ,74.7 ,22.9 ,21.2 ,24.4 
2003/7/1,9:30:00,24.1 ,74.1 ,22.9 ,21.2 ,24.4 
2003/7/1,9:45:00,24.2 ,73.4 ,22.9 ,21.3 ,24.4 
2003/7/1,10:00:00,24.2 ,72.9 ,22.9 ,21.3 ,24.5 
2003/7/1,10:15:00,24.2 ,72.8 ,22.9 ,21.3 ,24.5 
2003/7/1,10:30:00,24.3 ,72.5 ,23.0 ,21.4 ,24.5 
2003/7/1,10:45:00,24.3 ,71.9 ,23.0 ,20.8 ,24.5 
2003/7/1,11:00:00,24.3 ,72.0 ,23.0 ,20.8 ,24.6 
2003/7/1,11:15:00,24.3 ,72.2 ,23.0 ,20.9 ,24.6 
2003/7/1,11:30:00,24.1 ,73.3 ,23.0 ,20.9 ,24.5 
2003/7/1,11:45:00,24.3 ,72.6 ,23.0 ,21.0 ,24.5 
2003/7/1,12:00:00,24.3 ,71.9 ,23.1 ,21.0 ,24.6 
2003/7/1,12:15:00,24.3 ,71.8 ,23.1 ,21.1 ,24.6 
2003/7/1,12:30:00,24.4 ,72.7 ,23.1 ,20.7 ,24.7 
2003/7/1,12:45:00,24.5 ,73.2 ,23.1 ,20.8 ,24.7 
2003/7/1,13:00:00,24.6 ,72.8 ,23.1 ,20.8 ,24.8 
2003/7/1,13:15:00,24.7 ,72.3 ,23.2 ,20.8 ,24.9 
2003/7/1,13:30:00,24.7 ,72.0 ,23.2 ,20.8 ,24.9 
2003/7/1,13:45:00,24.7 ,71.5 ,23.2 ,20.9 ,25.0 
2003/7/1,14:00:00,24.8 ,71.4 ,23.3 ,20.9 ,25.0 
2003/7/1,14:15:00,24.8 ,71.4 ,23.3 ,21.0 ,25.0 
2003/7/1,14:30:00,24.7 ,72.1 ,23.3 ,21.0 ,25.0 
2003/7/1,14:45:00,24.7 ,72.8 ,23.3 ,21.1 ,25.0 
2003/7/1,15:00:00,24.7 ,72.2 ,23.3 ,21.1 ,25.0 
2003/7/1,15:15:00,24.6 ,72.2 ,23.3 ,21.2 ,24.9 
2003/7/1,15:30:00,24.5 ,72.1 ,23.3 ,21.2 ,24.8 
2003/7/1,15:45:00,24.4 ,71.3 ,23.3 ,21.3 ,24.8 
2003/7/1,16:00:00,24.2 ,71.3 ,23.3 ,21.3 ,24.7 
2003/7/1,16:15:00,24.1 ,72.4 ,23.3 ,21.4 ,24.7 
2003/7/1,16:30:00,23.9 ,72.7 ,23.3 ,21.4 ,24.5 
2003/7/1,16:45:00,23.7 ,71.9 ,23.3 ,21.5 ,24.5 
2003/7/1,17:00:00,23.5 ,72.7 ,23.2 ,21.5 ,24.3 
2003/7/1,17:15:00,23.4 ,73.4 ,23.1 ,21.5 ,24.2 
2003/7/1,17:30:00,23.2 ,73.5 ,23.1 ,21.6 ,24.0 
2003/7/1,17:45:00,23.2 ,73.8 ,23.0 ,21.6 ,23.9 
2003/7/1,18:00:00,23.0 ,74.3 ,22.9 ,21.7 ,23.9 
2003/7/1,18:15:00,22.9 ,74.2 ,22.8 ,21.7 ,23.8 
2003/7/1,18:30:00,23.0 ,73.1 ,22.8 ,21.7 ,23.7 
2003/7/1,18:45:00,22.9 ,72.8 ,22.7 ,21.7 ,23.6 
2003/7/1,19:00:00,22.8 ,73.4 ,22.7 ,21.1 ,23.5 
2003/7/1,19:15:00,23.2 ,72.3 ,22.6 ,21.1 ,23.7 
2003/7/1,19:30:00,23.3 ,72.0 ,22.6 ,21.1 ,24.7 
2003/7/1,19:45:00,23.4 ,72.3 ,22.6 ,21.1 ,24.9 
2003/7/1,20:00:00,23.4 ,72.5 ,22.6 ,21.2 ,24.9 
2003/7/1,20:15:00,23.4 ,72.4 ,22.6 ,21.2 ,25.4 
2003/7/1,20:30:00,23.5 ,72.6 ,22.6 ,21.2 ,25.5 
2003/7/1,20:45:00,23.6 ,72.6 ,22.6 ,21.3 ,25.3 
2003/7/1,21:00:00,23.6 ,72.6 ,22.6 ,21.3 ,25.0 
2003/7/1,21:15:00,23.6 ,72.5 ,22.6 ,21.4 ,24.9 
2003/7/1,21:30:00,23.7 ,72.4 ,22.6 ,21.4 ,24.7 
2003/7/1,21:45:00,23.7 ,72.5 ,22.6 ,21.4 ,24.6 
2003/7/1,22:00:00,23.7 ,72.7 ,22.6 ,21.3 ,24.5 
2003/7/1,22:15:00,23.7 ,72.4 ,22.6 ,21.2 ,24.4 
2003/7/1,22:30:00,23.7 ,73.0 ,22.6 ,21.3 ,24.3 
2003/7/1,22:45:00,23.7 ,73.7 ,22.6 ,21.3 ,24.2 
2003/7/1,23:00:00,23.7 ,73.7 ,22.6 ,21.3 ,24.2 
2003/7/1,23:15:00,23.8 ,73.8 ,22.6 ,21.0 ,24.1 
2003/7/1,23:30:00,23.7 ,73.7 ,22.6 ,21.1 ,24.1 
2003/7/1,23:45:00,23.7 ,73.9 ,22.6 ,21.1 ,24.0 
2003/7/2,0:00:00,23.7 ,73.7 ,22.6 ,21.1 ,24.0 
2003/7/2,0:15:00,23.6 ,73.4 ,22.6 ,21.1 ,23.9 
2003/7/2,0:30:00,23.6 ,73.2 ,22.6 ,21.2 ,23.9 
2003/7/2,0:45:00,23.6 ,73.8 ,22.5 ,21.2 ,23.8 
2003/7/2,1:00:00,23.6 ,73.7 ,22.5 ,21.3 ,23.8 
2003/7/2,1:15:00,23.6 ,73.4 ,22.5 ,21.3 ,23.8 
2003/7/2,1:30:00,23.5 ,73.1 ,22.5 ,21.3 ,23.7 
2003/7/2,1:45:00,23.5 ,73.0 ,22.5 ,21.4 ,23.7 
2003/7/2,2:00:00,23.5 ,72.8 ,22.5 ,21.4 ,23.6 
2003/7/2,2:15:00,23.4 ,72.7 ,22.5 ,21.4 ,23.6 
2003/7/2,2:30:00,23.4 ,72.7 ,22.5 ,21.5 ,23.5 
2003/7/2,2:45:00,23.4 ,72.6 ,22.4 ,21.5 ,23.4 
2003/7/2,3:00:00,23.4 ,72.4 ,22.4 ,21.5 ,23.3 
2003/7/2,3:15:00,23.3 ,72.4 ,22.4 ,21.6 ,23.4 
2003/7/2,3:30:00,23.3 ,72.4 ,22.4 ,21.6 ,23.4 
2003/7/2,3:45:00,23.3 ,72.3 ,22.4 ,21.6 ,23.4 
2003/7/2,4:00:00,23.3 ,72.3 ,22.4 ,21.6 ,23.3 
2003/7/2,4:15:00,23.2 ,72.3 ,22.4 ,21.7 ,23.1 
2003/7/2,4:30:00,23.2 ,72.3 ,22.3 ,21.7 ,23.1 
2003/7/2,4:45:00,23.2 ,72.3 ,22.3 ,21.7 ,23.2 
2003/7/2,5:00:00,23.2 ,72.4 ,22.3 ,21.7 ,23.3 
2003/7/2,5:15:00,23.2 ,72.3 ,22.3 ,21.8 ,23.3 
2003/7/2,5:30:00,23.2 ,72.3 ,22.3 ,21.8 ,23.3 
2003/7/2,5:45:00,23.2 ,72.4 ,22.3 ,21.0 ,23.5 
2003/7/2,6:00:00,23.2 ,72.4 ,22.3 ,21.0 ,23.6 
2003/7/2,6:15:00,23.2 ,72.4 ,22.2 ,21.1 ,23.7 
2003/7/2,6:30:00,23.2 ,72.3 ,22.2 ,21.1 ,23.7 
2003/7/2,6:45:00,23.2 ,72.3 ,22.2 ,21.2 ,23.6 
2003/7/2,7:00:00,23.2 ,72.2 ,22.2 ,21.3 ,23.6 
2003/7/2,7:15:00,23.2 ,72.2 ,22.2 ,21.3 ,23.6 
2003/7/2,7:30:00,23.2 ,72.3 ,22.2 ,21.3 ,23.5 
2003/7/2,7:45:00,23.3 ,73.0 ,22.2 ,21.2 ,23.5 
2003/7/2,8:00:00,23.3 ,73.0 ,22.2 ,21.2 ,23.6 
2003/7/2,8:15:00,23.4 ,72.7 ,22.2 ,21.6 ,23.6 
2003/7/2,8:30:00,23.4 ,72.6 ,22.2 ,21.3 ,23.6 
2003/7/2,8:45:00,23.4 ,72.3 ,22.2 ,21.3 ,23.5 
2003/7/2,9:00:00,23.5 ,72.1 ,22.2 ,21.4 ,23.6 
2003/7/2,9:15:00,23.6 ,72.2 ,22.3 ,21.4 ,23.7 
2003/7/2,9:30:00,23.5 ,70.0 ,22.3 ,21.4 ,23.8 
2003/7/2,9:45:00,23.3 ,69.7 ,22.3 ,21.4 ,23.6 
2003/7/2,10:00:00,23.2 ,68.4 ,22.3 ,21.5 ,23.5 
2003/7/2,10:15:00,23.4 ,69.6 ,22.3 ,20.9 ,23.6 
2003/7/2,10:30:00,23.5 ,68.6 ,22.3 ,20.9 ,23.7 
2003/7/2,10:45:00,23.5 ,69.7 ,22.3 ,21.0 ,23.7 
2003/7/2,11:00:00,23.5 ,69.8 ,22.3 ,21.0 ,23.8 
2003/7/2,11:15:00,23.6 ,69.4 ,22.3 ,21.0 ,23.8 
2003/7/2,11:30:00,23.5 ,69.3 ,22.3 ,21.1 ,23.8 
2003/7/2,11:45:00,23.6 ,68.7 ,22.3 ,21.1 ,23.8 
2003/7/2,12:00:00,23.7 ,68.4 ,22.3 ,21.1 ,23.9 
2003/7/2,12:15:00,23.7 ,68.1 ,22.3 ,21.1 ,23.9 
2003/7/2,12:30:00,23.7 ,67.8 ,22.3 ,21.2 ,23.9 
2003/7/2,12:45:00,23.8 ,67.1 ,22.3 ,21.2 ,24.0 
2003/7/2,13:00:00,23.8 ,67.0 ,22.4 ,21.2 ,24.1 
2003/7/2,13:15:00,23.9 ,67.5 ,22.4 ,21.6 ,24.5 
2003/7/2,13:30:00,24.0 ,67.2 ,22.4 ,21.6 ,25.0 
2003/7/2,13:45:00,24.1 ,66.6 ,22.4 ,21.6 ,25.2 
2003/7/2,14:00:00,24.2 ,66.4 ,22.4 ,21.6 ,25.3 
2003/7/2,14:15:00,24.2 ,66.1 ,22.5 ,20.9 ,25.3 
2003/7/2,14:30:00,24.2 ,65.9 ,22.5 ,21.0 ,25.3 
2003/7/2,14:45:00,24.3 ,66.4 ,22.5 ,21.0 ,25.3 
2003/7/2,15:00:00,24.3 ,67.1 ,22.5 ,21.0 ,25.3 
2003/7/2,15:15:00,24.3 ,67.4 ,22.6 ,21.1 ,25.3 
2003/7/2,15:30:00,24.3 ,67.4 ,22.6 ,21.1 ,25.2 
2003/7/2,15:45:00,24.3 ,67.5 ,22.6 ,21.2 ,25.1 
2003/7/2,16:00:00,24.4 ,67.8 ,22.7 ,20.8 ,25.2 
2003/7/2,16:15:00,24.4 ,66.4 ,22.7 ,20.8 ,26.1 
2003/7/2,16:30:00,24.4 ,67.7 ,22.7 ,20.9 ,26.2 
2003/7/2,16:45:00,24.4 ,68.2 ,22.7 ,20.9 ,25.9 
2003/7/2,17:00:00,24.4 ,68.1 ,22.8 ,21.0 ,25.5 
2003/7/2,17:15:00,24.4 ,67.8 ,22.8 ,21.0 ,25.3 
2003/7/2,17:30:00,24.1 ,63.8 ,22.7 ,21.0 ,25.0 
2003/7/2,17:45:00,24.2 ,64.8 ,22.7 ,21.1 ,24.7 
2003/7/2,18:00:00,24.2 ,65.5 ,22.7 ,20.9 ,24.7 
2003/7/2,18:15:00,24.2 ,66.1 ,22.7 ,20.9 ,24.7 
2003/7/2,18:30:00,24.1 ,66.1 ,22.7 ,21.0 ,24.6 
2003/7/2,18:45:00,24.1 ,66.3 ,22.7 ,21.0 ,24.5 
2003/7/2,19:00:00,24.0 ,66.0 ,22.7 ,21.0 ,24.4 
2003/7/2,19:15:00,24.0 ,66.1 ,22.7 ,21.1 ,24.4 
2003/7/2,19:30:00,23.9 ,66.1 ,22.7 ,21.1 ,24.3 
2003/7/2,19:45:00,23.9 ,66.0 ,22.7 ,21.1 ,24.2 
2003/7/2,20:00:00,23.8 ,65.9 ,22.6 ,21.2 ,24.1 
2003/7/2,20:15:00,23.8 ,66.0 ,22.6 ,21.2 ,24.0 
2003/7/2,20:30:00,23.7 ,65.8 ,22.6 ,21.3 ,23.9 
2003/7/2,20:45:00,23.6 ,66.0 ,22.6 ,21.3 ,23.8 
2003/7/2,21:00:00,23.6 ,65.7 ,22.6 ,21.3 ,23.8 
2003/7/2,21:15:00,23.5 ,66.1 ,22.6 ,21.4 ,23.7 
2003/7/2,21:30:00,23.4 ,65.9 ,22.5 ,21.4 ,23.7 
2003/7/2,21:45:00,23.4 ,65.8 ,22.5 ,21.4 ,23.6 
2003/7/2,22:00:00,23.3 ,66.1 ,22.5 ,21.5 ,23.5 
2003/7/2,22:15:00,23.3 ,66.0 ,22.5 ,21.5 ,23.5 
2003/7/2,22:30:00,23.2 ,66.2 ,22.4 ,21.5 ,23.4 
2003/7/2,22:45:00,23.2 ,66.3 ,22.4 ,21.6 ,23.3 
2003/7/2,23:00:00,23.2 ,66.1 ,22.4 ,21.6 ,23.3 
2003/7/2,23:15:00,23.2 ,66.4 ,22.3 ,21.6 ,23.3 
2003/7/2,23:30:00,23.2 ,66.7 ,22.3 ,21.6 ,23.2 
2003/7/2,23:45:00,23.2 ,67.3 ,22.2 ,21.6 ,23.0 
2003/7/3,0:00:00,23.2 ,68.4 ,22.2 ,21.7 ,22.8 
2003/7/3,0:15:00,23.2 ,68.2 ,22.1 ,21.7 ,22.6 
2003/7/3,0:30:00,23.1 ,68.0 ,22.1 ,21.7 ,22.5 
2003/7/3,0:45:00,23.0 ,67.7 ,22.1 ,21.7 ,22.4 
2003/7/3,1:00:00,22.9 ,67.6 ,22.0 ,21.7 ,22.4 
2003/7/3,1:15:00,22.9 ,67.4 ,22.0 ,21.8 ,22.3 
2003/7/3,1:30:00,22.8 ,67.4 ,22.0 ,21.8 ,22.2 
2003/7/3,1:45:00,22.8 ,67.3 ,21.9 ,21.8 ,22.1 
2003/7/3,2:00:00,22.7 ,67.2 ,21.9 ,21.8 ,22.1 
2003/7/3,2:15:00,22.7 ,67.2 ,21.9 ,21.8 ,22.0 
2003/7/3,2:30:00,22.6 ,67.1 ,21.8 ,21.8 ,21.9 
2003/7/3,2:45:00,22.6 ,67.1 ,21.8 ,21.8 ,21.8 
2003/7/3,3:00:00,22.5 ,67.1 ,21.7 ,21.8 ,21.8 
2003/7/3,3:15:00,22.5 ,67.0 ,21.7 ,21.8 ,21.8 
2003/7/3,3:30:00,22.5 ,67.0 ,21.7 ,21.9 ,21.7 
2003/7/3,3:45:00,22.4 ,66.9 ,21.6 ,21.9 ,21.6 
2003/7/3,4:00:00,22.4 ,66.9 ,21.6 ,21.9 ,21.5 
2003/7/3,4:15:00,22.3 ,66.9 ,21.6 ,21.9 ,21.5 
2003/7/3,4:30:00,22.3 ,66.9 ,21.5 ,21.9 ,21.5 
2003/7/3,4:45:00,22.3 ,67.0 ,21.5 ,21.9 ,21.5 
2003/7/3,5:00:00,22.3 ,67.1 ,21.4 ,21.9 ,21.5 
2003/7/3,5:15:00,22.2 ,67.1 ,21.4 ,21.9 ,21.5 
2003/7/3,5:30:00,22.2 ,67.1 ,21.4 ,21.9 ,21.5 
2003/7/3,5:45:00,22.3 ,67.1 ,21.4 ,21.9 ,21.4 
2003/7/3,6:00:00,22.3 ,66.6 ,21.4 ,21.9 ,21.6 
2003/7/3,6:15:00,22.4 ,66.7 ,21.4 ,21.9 ,21.7 
2003/7/3,6:30:00,22.4 ,67.6 ,21.4 ,21.2 ,21.8 
2003/7/3,6:45:00,22.5 ,67.4 ,21.4 ,21.3 ,21.8 
2003/7/3,7:00:00,22.6 ,67.4 ,21.4 ,21.3 ,21.9 
2003/7/3,7:15:00,22.6 ,67.2 ,21.4 ,21.3 ,22.0 
2003/7/3,7:30:00,22.9 ,67.7 ,21.4 ,21.3 ,22.4 
2003/7/3,7:45:00,23.1 ,67.8 ,21.4 ,20.6 ,23.0 
2003/7/3,8:00:00,23.4 ,67.5 ,21.5 ,20.7 ,23.2 
2003/7/3,8:15:00,23.6 ,67.6 ,21.5 ,20.7 ,23.4 
2003/7/3,8:30:00,23.7 ,67.6 ,21.6 ,20.7 ,23.4 
2003/7/3,8:45:00,23.8 ,68.1 ,21.7 ,20.8 ,23.6 
2003/7/3,9:00:00,23.8 ,67.9 ,21.7 ,20.8 ,23.6 
2003/7/3,9:15:00,23.8 ,67.3 ,21.8 ,20.8 ,23.7 
2003/7/3,9:30:00,23.9 ,67.6 ,21.8 ,20.9 ,23.7 
2003/7/3,9:45:00,24.0 ,66.6 ,21.9 ,20.7 ,23.8 
2003/7/3,10:00:00,24.0 ,67.0 ,22.0 ,20.7 ,23.9 
2003/7/3,10:15:00,24.1 ,66.4 ,22.0 ,20.7 ,23.9 
2003/7/3,10:30:00,24.1 ,66.8 ,22.1 ,20.8 ,23.9 
2003/7/3,10:45:00,24.1 ,67.4 ,22.1 ,20.8 ,24.0 
2003/7/3,11:00:00,24.1 ,66.9 ,22.2 ,20.8 ,24.0 
2003/7/3,11:15:00,24.2 ,66.7 ,22.2 ,20.9 ,24.1 
2003/7/3,11:30:00,24.2 ,66.8 ,22.3 ,20.9 ,24.1 
2003/7/3,11:45:00,24.3 ,65.7 ,22.3 ,21.0 ,24.2 
2003/7/3,12:00:00,24.4 ,66.6 ,22.4 ,21.0 ,24.3 
2003/7/3,12:15:00,24.5 ,66.1 ,22.4 ,21.0 ,24.3 
2003/7/3,12:30:00,24.5 ,66.0 ,22.5 ,21.1 ,24.4 
2003/7/3,12:45:00,24.5 ,66.2 ,22.5 ,21.1 ,24.4 
2003/7/3,13:00:00,24.6 ,65.5 ,22.5 ,21.2 ,24.5 
2003/7/3,13:15:00,24.6 ,64.2 ,22.6 ,21.2 ,24.5 
2003/7/3,13:30:00,24.6 ,64.4 ,22.6 ,21.2 ,24.5 
2003/7/3,13:45:00,24.6 ,65.0 ,22.7 ,21.3 ,24.5 
2003/7/3,14:00:00,24.6 ,66.1 ,22.7 ,21.3 ,24.6 
2003/7/3,14:15:00,24.7 ,67.2 ,22.7 ,21.4 ,24.6 
2003/7/3,14:30:00,24.7 ,68.4 ,22.8 ,21.4 ,24.6 
2003/7/3,14:45:00,24.7 ,69.2 ,22.8 ,21.4 ,24.7 
2003/7/3,15:00:00,24.7 ,68.7 ,22.9 ,21.5 ,24.7 
2003/7/3,15:15:00,24.7 ,69.0 ,22.9 ,21.5 ,24.7 
2003/7/3,15:30:00,24.7 ,69.4 ,22.9 ,21.6 ,24.7 
2003/7/3,15:45:00,24.6 ,69.4 ,23.0 ,21.6 ,24.7 
2003/7/3,16:00:00,24.6 ,70.0 ,23.0 ,21.6 ,24.6 
2003/7/3,16:15:00,24.5 ,69.4 ,23.0 ,21.7 ,24.6 
2003/7/3,16:30:00,24.5 ,70.5 ,23.0 ,21.7 ,24.5 
2003/7/3,16:45:00,24.4 ,71.7 ,23.1 ,21.7 ,24.5 
2003/7/3,17:00:00,24.4 ,73.0 ,23.1 ,21.8 ,24.5 
2003/7/3,17:15:00,24.4 ,73.5 ,23.1 ,21.8 ,24.4 
2003/7/3,17:30:00,24.4 ,74.3 ,23.1 ,21.8 ,24.4 
2003/7/3,17:45:00,24.3 ,75.3 ,23.1 ,21.9 ,24.4 
2003/7/3,18:00:00,24.3 ,75.4 ,23.1 ,21.9 ,24.4 
2003/7/3,18:15:00,24.3 ,74.1 ,23.1 ,21.9 ,24.4 
2003/7/3,18:30:00,24.3 ,73.6 ,23.1 ,21.1 ,24.4 
2003/7/3,18:45:00,24.3 ,73.1 ,23.1 ,21.1 ,24.4 
2003/7/3,19:00:00,24.4 ,73.0 ,23.1 ,21.1 ,24.5 
2003/7/3,19:15:00,24.4 ,72.9 ,23.1 ,21.2 ,24.5 
2003/7/3,19:30:00,24.3 ,72.6 ,23.1 ,21.2 ,24.5 
2003/7/3,19:45:00,24.4 ,73.0 ,23.1 ,21.3 ,24.5 
2003/7/3,20:00:00,24.4 ,73.4 ,23.1 ,21.3 ,24.8 
2003/7/3,20:15:00,24.5 ,73.2 ,23.1 ,21.4 ,24.8 
2003/7/3,20:30:00,24.5 ,72.9 ,23.1 ,21.1 ,24.9 
2003/7/3,20:45:00,24.4 ,73.0 ,23.1 ,21.2 ,24.7 
2003/7/3,21:00:00,24.4 ,72.9 ,23.1 ,21.2 ,24.7 
2003/7/3,21:15:00,24.4 ,73.2 ,23.1 ,21.2 ,24.6 
2003/7/3,21:30:00,24.4 ,73.3 ,23.1 ,21.3 ,24.5 
2003/7/3,21:45:00,24.4 ,73.5 ,23.1 ,21.3 ,24.5 
2003/7/3,22:00:00,24.4 ,72.9 ,23.1 ,21.4 ,24.5 
2003/7/3,22:15:00,24.4 ,72.7 ,23.1 ,21.4 ,24.5 
2003/7/3,22:30:00,24.4 ,72.5 ,23.1 ,21.4 ,24.4 
2003/7/3,22:45:00,24.4 ,72.9 ,23.1 ,21.5 ,24.4 
2003/7/3,23:00:00,24.4 ,72.8 ,23.1 ,21.5 ,24.4 
2003/7/3,23:15:00,24.4 ,72.9 ,23.1 ,21.6 ,24.4 
2003/7/3,23:30:00,24.4 ,72.8 ,23.1 ,21.6 ,24.3 
2003/7/3,23:45:00,24.4 ,73.0 ,23.1 ,21.7 ,24.3 
2003/7/4,0:00:00,24.4 ,72.6 ,23.1 ,21.0 ,24.3 
2003/7/4,0:15:00,24.3 ,72.8 ,23.1 ,21.0 ,24.3 
2003/7/4,0:30:00,24.3 ,73.2 ,23.1 ,21.1 ,24.2 
2003/7/4,0:45:00,24.3 ,73.3 ,23.1 ,21.1 ,24.2 
2003/7/4,1:00:00,24.2 ,73.3 ,23.1 ,21.2 ,24.2 
2003/7/4,1:15:00,24.2 ,73.5 ,23.1 ,21.2 ,24.2 
2003/7/4,1:30:00,24.2 ,73.6 ,23.0 ,21.3 ,24.1 
2003/7/4,1:45:00,24.1 ,73.7 ,23.0 ,21.3 ,24.1 
2003/7/4,2:00:00,24.1 ,73.8 ,23.0 ,21.3 ,24.1 
2003/7/4,2:15:00,24.1 ,73.4 ,23.0 ,21.4 ,24.1 
2003/7/4,2:30:00,24.1 ,73.3 ,23.0 ,21.4 ,24.0 
2003/7/4,2:45:00,24.1 ,73.6 ,23.0 ,21.5 ,24.0 
2003/7/4,3:00:00,24.1 ,73.4 ,23.0 ,21.5 ,24.1 
2003/7/4,3:15:00,24.0 ,73.2 ,23.0 ,21.6 ,24.1 
2003/7/4,3:30:00,24.0 ,73.5 ,23.0 ,21.6 ,24.1 
2003/7/4,3:45:00,24.0 ,73.5 ,23.0 ,21.6 ,24.0 
2003/7/4,4:00:00,24.0 ,73.4 ,22.9 ,21.7 ,24.0 
2003/7/4,4:15:00,24.0 ,73.3 ,22.9 ,21.7 ,24.0 
2003/7/4,4:30:00,24.0 ,73.3 ,22.9 ,21.7 ,24.0 
2003/7/4,4:45:00,24.0 ,73.4 ,22.9 ,21.7 ,24.0 
2003/7/4,5:00:00,23.9 ,73.3 ,22.9 ,21.8 ,24.0 
2003/7/4,5:15:00,23.9 ,73.1 ,22.9 ,21.8 ,23.9 
2003/7/4,5:30:00,23.9 ,73.4 ,22.9 ,21.8 ,23.9 
2003/7/4,5:45:00,23.9 ,73.4 ,22.9 ,21.9 ,23.9 
2003/7/4,6:00:00,23.9 ,73.4 ,22.9 ,21.9 ,23.9 
2003/7/4,6:15:00,23.9 ,73.5 ,22.9 ,21.0 ,24.1 
2003/7/4,6:30:00,23.9 ,73.7 ,22.8 ,20.7 ,24.1 
2003/7/4,6:45:00,23.9 ,73.8 ,22.8 ,20.7 ,24.1 
2003/7/4,7:00:00,23.9 ,73.9 ,22.8 ,20.8 ,24.1 
2003/7/4,7:15:00,23.9 ,73.8 ,22.8 ,20.6 ,24.1 
2003/7/4,7:30:00,24.0 ,73.8 ,22.8 ,20.7 ,24.2 
2003/7/4,7:45:00,24.0 ,73.6 ,22.8 ,20.7 ,24.2 
2003/7/4,8:00:00,24.0 ,73.6 ,22.8 ,20.6 ,24.2 
2003/7/4,8:15:00,24.1 ,73.6 ,22.8 ,21.0 ,24.3 
2003/7/4,8:30:00,24.1 ,73.7 ,22.8 ,21.1 ,24.2 
2003/7/4,8:45:00,24.1 ,73.5 ,22.8 ,21.1 ,24.3 
2003/7/4,9:00:00,24.1 ,73.6 ,22.8 ,21.1 ,24.3 
2003/7/4,9:15:00,24.1 ,73.6 ,22.8 ,21.2 ,24.3 
2003/7/4,9:30:00,24.1 ,73.3 ,22.9 ,21.2 ,24.3 
2003/7/4,9:45:00,24.2 ,73.2 ,22.9 ,21.2 ,24.3 
2003/7/4,10:00:00,24.2 ,73.2 ,22.9 ,21.3 ,24.3 
2003/7/4,10:15:00,24.2 ,73.0 ,22.9 ,21.3 ,24.4 
2003/7/4,10:30:00,24.2 ,72.9 ,22.9 ,20.8 ,24.4 
2003/7/4,10:45:00,24.2 ,72.8 ,22.9 ,20.8 ,24.4 
2003/7/4,11:00:00,24.3 ,72.7 ,22.9 ,20.9 ,24.4 
2003/7/4,11:15:00,24.3 ,72.6 ,22.9 ,20.9 ,24.4 
2003/7/4,11:30:00,24.3 ,72.4 ,23.0 ,21.0 ,24.4 
2003/7/4,11:45:00,24.3 ,72.3 ,23.0 ,21.0 ,24.5 
2003/7/4,12:00:00,24.3 ,72.0 ,23.0 ,21.1 ,24.5 
2003/7/4,12:15:00,24.3 ,71.9 ,23.0 ,21.1 ,24.5 
2003/7/4,12:30:00,24.4 ,71.8 ,23.0 ,21.1 ,24.5 
2003/7/4,12:45:00,24.4 ,71.6 ,23.0 ,21.2 ,24.6 
2003/7/4,13:00:00,24.4 ,71.4 ,23.0 ,21.2 ,24.6 
2003/7/4,13:15:00,24.4 ,71.0 ,23.1 ,21.3 ,24.6 
2003/7/4,13:30:00,24.5 ,71.0 ,23.1 ,21.3 ,24.6 
2003/7/4,13:45:00,24.5 ,70.7 ,23.1 ,21.4 ,24.7 
2003/7/4,14:00:00,24.5 ,70.8 ,23.1 ,21.4 ,24.7 
2003/7/4,14:15:00,24.5 ,70.8 ,23.1 ,21.4 ,24.7 
2003/7/4,14:30:00,24.5 ,70.5 ,23.1 ,21.5 ,24.7 
2003/7/4,14:45:00,24.5 ,70.6 ,23.1 ,21.5 ,24.7 
2003/7/4,15:00:00,24.5 ,70.8 ,23.2 ,21.6 ,24.7 
2003/7/4,15:15:00,24.5 ,70.6 ,23.2 ,21.6 ,24.8 
2003/7/4,15:30:00,24.5 ,70.6 ,23.2 ,21.6 ,24.7 
2003/7/4,15:45:00,24.5 ,70.7 ,23.2 ,21.7 ,24.8 
2003/7/4,16:00:00,24.5 ,71.1 ,23.2 ,21.2 ,25.3 
2003/7/4,16:15:00,24.5 ,70.8 ,23.2 ,21.2 ,25.3 
2003/7/4,16:30:00,24.4 ,70.9 ,23.1 ,21.2 ,25.2 
2003/7/4,16:45:00,24.4 ,70.9 ,23.1 ,21.3 ,25.0 
2003/7/4,17:00:00,24.4 ,70.9 ,23.1 ,21.3 ,24.9 
2003/7/4,17:15:00,24.3 ,71.0 ,23.1 ,21.4 ,24.8 
2003/7/4,17:30:00,24.3 ,71.0 ,23.1 ,21.4 ,24.7 
2003/7/4,17:45:00,24.3 ,71.2 ,23.1 ,21.5 ,24.7 
2003/7/4,18:00:00,24.2 ,71.5 ,23.1 ,21.5 ,24.6 
2003/7/4,18:15:00,24.2 ,71.6 ,23.1 ,21.5 ,24.5 
2003/7/4,18:30:00,24.2 ,72.2 ,23.0 ,21.6 ,24.4 
2003/7/4,18:45:00,24.1 ,72.8 ,23.0 ,21.6 ,24.4 
2003/7/4,19:00:00,24.1 ,72.0 ,23.0 ,21.7 ,24.3 
2003/7/4,19:15:00,24.1 ,71.8 ,23.0 ,21.7 ,24.3 
2003/7/4,19:30:00,24.1 ,71.7 ,23.0 ,20.8 ,24.3 
2003/7/4,19:45:00,24.0 ,71.4 ,22.9 ,20.8 ,24.5 
2003/7/4,20:00:00,24.0 ,71.1 ,22.9 ,20.9 ,26.0 
2003/7/4,20:15:00,24.0 ,71.0 ,22.8 ,20.9 ,26.2 
2003/7/4,20:30:00,24.0 ,70.9 ,22.8 ,20.9 ,26.7 
2003/7/4,20:45:00,24.0 ,70.8 ,22.8 ,21.0 ,27.1 
2003/7/4,21:00:00,24.1 ,71.5 ,22.8 ,21.0 ,26.6 
2003/7/4,21:15:00,24.1 ,71.3 ,22.8 ,21.1 ,26.0 
2003/7/4,21:30:00,24.1 ,71.0 ,22.8 ,21.1 ,25.5 
2003/7/4,21:45:00,24.0 ,70.9 ,22.7 ,21.1 ,25.1 
2003/7/4,22:00:00,24.0 ,71.2 ,22.7 ,21.2 ,24.9 
2003/7/4,22:15:00,24.0 ,71.2 ,22.7 ,21.2 ,24.7 
2003/7/4,22:30:00,24.0 ,71.2 ,22.7 ,21.3 ,24.7 
2003/7/4,22:45:00,24.0 ,71.4 ,22.7 ,21.3 ,24.6 
2003/7/4,23:00:00,24.0 ,71.4 ,22.7 ,21.1 ,24.5 
2003/7/4,23:15:00,24.0 ,72.2 ,22.7 ,21.1 ,24.4 
2003/7/4,23:30:00,24.0 ,72.4 ,22.7 ,21.1 ,24.3 
2003/7/4,23:45:00,24.0 ,72.5 ,22.7 ,21.2 ,24.2 
2003/7/5,0:00:00,24.0 ,72.6 ,22.7 ,21.2 ,24.2 
2003/7/5,0:15:00,23.9 ,72.5 ,22.7 ,20.9 ,24.1 
2003/7/5,0:30:00,23.9 ,72.1 ,22.7 ,20.9 ,24.1 
2003/7/5,0:45:00,23.9 ,71.9 ,22.6 ,21.0 ,24.0 
2003/7/5,1:00:00,23.8 ,71.9 ,22.6 ,21.0 ,24.0 
2003/7/5,1:15:00,23.8 ,72.5 ,22.6 ,21.0 ,24.0 
2003/7/5,1:30:00,23.8 ,72.4 ,22.6 ,21.1 ,24.0 
2003/7/5,1:45:00,23.8 ,72.2 ,22.6 ,21.1 ,23.9 
2003/7/5,2:00:00,23.7 ,72.0 ,22.6 ,21.1 ,23.8 
2003/7/5,2:15:00,23.7 ,71.9 ,22.6 ,21.2 ,23.8 
2003/7/5,2:30:00,23.7 ,71.9 ,22.5 ,21.2 ,23.8 
2003/7/5,2:45:00,23.6 ,71.8 ,22.5 ,21.2 ,23.7 
2003/7/5,3:00:00,23.6 ,71.7 ,22.5 ,21.3 ,23.6 
2003/7/5,3:15:00,23.6 ,71.6 ,22.5 ,21.3 ,23.7 
2003/7/5,3:30:00,23.5 ,71.6 ,22.5 ,21.3 ,23.7 
2003/7/5,3:45:00,23.5 ,71.5 ,22.5 ,21.4 ,23.7 
2003/7/5,4:00:00,23.5 ,71.5 ,22.4 ,21.4 ,23.7 
2003/7/5,4:15:00,23.5 ,71.5 ,22.4 ,21.4 ,23.6 
2003/7/5,4:30:00,23.4 ,71.5 ,22.4 ,21.4 ,23.6 
2003/7/5,4:45:00,23.4 ,71.5 ,22.4 ,21.5 ,23.6 
2003/7/5,5:00:00,23.4 ,71.5 ,22.4 ,21.5 ,23.5 
2003/7/5,5:15:00,23.4 ,71.4 ,22.3 ,21.5 ,23.5 
2003/7/5,5:30:00,23.4 ,71.5 ,22.3 ,21.5 ,23.5 
2003/7/5,5:45:00,23.4 ,71.5 ,22.3 ,21.6 ,23.5 
2003/7/5,6:00:00,23.4 ,71.3 ,22.3 ,21.6 ,23.4 
2003/7/5,6:15:00,23.4 ,71.3 ,22.3 ,21.6 ,23.4 
2003/7/5,6:30:00,23.4 ,71.6 ,22.3 ,21.6 ,23.5 
2003/7/5,6:45:00,23.4 ,71.2 ,22.3 ,20.9 ,23.5 
2003/7/5,7:00:00,23.4 ,71.5 ,22.3 ,21.0 ,23.8 
2003/7/5,7:15:00,23.4 ,71.5 ,22.3 ,21.0 ,23.8 
2003/7/5,7:30:00,23.5 ,71.4 ,22.3 ,21.0 ,23.8 
2003/7/5,7:45:00,23.5 ,71.8 ,22.3 ,21.0 ,23.9 
2003/7/5,8:00:00,23.5 ,72.0 ,22.3 ,21.1 ,23.8 
2003/7/5,8:15:00,23.5 ,72.0 ,22.3 ,21.1 ,23.8 
2003/7/5,8:30:00,23.6 ,71.8 ,22.3 ,21.1 ,24.0 
2003/7/5,8:45:00,23.7 ,71.6 ,22.3 ,21.2 ,24.0 
2003/7/5,9:00:00,23.7 ,71.1 ,22.3 ,20.7 ,24.0 
2003/7/5,9:15:00,23.7 ,71.0 ,22.3 ,20.7 ,24.1 
2003/7/5,9:30:00,23.8 ,71.0 ,22.3 ,20.7 ,24.1 
2003/7/5,9:45:00,23.9 ,70.6 ,22.3 ,20.8 ,24.2 
2003/7/5,10:00:00,23.9 ,70.9 ,22.4 ,20.5 ,24.2 
2003/7/5,10:15:00,24.0 ,70.4 ,22.4 ,20.6 ,24.2 
2003/7/5,10:30:00,24.0 ,70.4 ,22.4 ,21.2 ,24.3 
2003/7/5,10:45:00,24.1 ,70.1 ,22.4 ,21.2 ,24.3 
2003/7/5,11:00:00,24.1 ,70.0 ,22.4 ,21.2 ,24.3 
2003/7/5,11:15:00,24.2 ,69.8 ,22.5 ,21.2 ,24.4 
2003/7/5,11:30:00,24.3 ,70.5 ,22.5 ,21.3 ,24.5 
2003/7/5,11:45:00,24.4 ,70.1 ,22.5 ,21.3 ,24.6 
2003/7/5,12:00:00,24.5 ,69.6 ,22.6 ,21.3 ,24.7 
2003/7/5,12:15:00,24.5 ,69.5 ,22.6 ,21.4 ,24.7 
2003/7/5,12:30:00,24.6 ,70.0 ,22.6 ,21.4 ,24.9 
2003/7/5,12:45:00,24.8 ,70.1 ,22.7 ,21.0 ,26.0 
2003/7/5,13:00:00,24.9 ,70.4 ,22.7 ,21.0 ,26.3 
2003/7/5,13:15:00,25.0 ,69.8 ,22.8 ,21.0 ,26.1 
2003/7/5,13:30:00,25.1 ,70.2 ,22.8 ,21.1 ,26.0 
2003/7/5,13:45:00,25.1 ,69.6 ,22.9 ,21.1 ,25.8 
2003/7/5,14:00:00,25.1 ,69.5 ,22.9 ,21.2 ,25.7 
2003/7/5,14:15:00,25.1 ,69.5 ,23.0 ,21.2 ,25.6 
2003/7/5,14:30:00,25.2 ,69.3 ,23.0 ,21.3 ,25.6 
2003/7/5,14:45:00,25.2 ,69.3 ,23.1 ,21.3 ,25.6 
2003/7/5,15:00:00,25.2 ,68.5 ,23.1 ,21.4 ,25.6 
2003/7/5,15:15:00,25.2 ,68.7 ,23.1 ,21.4 ,25.6 
2003/7/5,15:30:00,25.2 ,69.1 ,23.2 ,21.0 ,25.6 
2003/7/5,15:45:00,25.3 ,70.1 ,23.2 ,21.0 ,25.8 
2003/7/5,16:00:00,25.3 ,70.6 ,23.3 ,21.0 ,26.4 
2003/7/5,16:15:00,25.3 ,70.4 ,23.3 ,21.1 ,26.2 
2003/7/5,16:30:00,25.3 ,70.2 ,23.3 ,21.1 ,26.0 
2003/7/5,16:45:00,25.2 ,70.2 ,23.4 ,21.2 ,25.9 
2003/7/5,17:00:00,25.2 ,70.0 ,23.4 ,21.2 ,25.8 
2003/7/5,17:15:00,25.2 ,70.0 ,23.4 ,21.3 ,25.7 
2003/7/5,17:30:00,25.1 ,70.1 ,23.4 ,21.3 ,25.6 
2003/7/5,17:45:00,25.1 ,70.1 ,23.5 ,21.4 ,25.6 
2003/7/5,18:00:00,25.1 ,70.1 ,23.5 ,21.5 ,25.6 
2003/7/5,18:15:00,25.0 ,70.3 ,23.5 ,21.5 ,25.5 
2003/7/5,18:30:00,25.0 ,70.1 ,23.5 ,21.6 ,25.5 
2003/7/5,18:45:00,25.0 ,70.3 ,23.5 ,21.6 ,25.4 
2003/7/5,19:00:00,24.9 ,70.0 ,23.5 ,21.7 ,25.3 
2003/7/5,19:15:00,24.9 ,70.2 ,23.5 ,21.7 ,25.2 
2003/7/5,19:30:00,24.8 ,70.1 ,23.5 ,21.8 ,25.1 
2003/7/5,19:45:00,24.8 ,70.2 ,23.5 ,21.8 ,25.1 
2003/7/5,20:00:00,24.7 ,70.2 ,23.4 ,21.9 ,25.0 
2003/7/5,20:15:00,24.6 ,70.1 ,23.4 ,21.9 ,24.9 
2003/7/5,20:30:00,24.6 ,70.2 ,23.4 ,21.9 ,24.9 
2003/7/5,20:45:00,24.6 ,70.0 ,23.4 ,22.0 ,24.8 
2003/7/5,21:00:00,24.5 ,69.8 ,23.4 ,22.0 ,24.8 
2003/7/5,21:15:00,24.5 ,69.7 ,23.4 ,22.1 ,24.7 
2003/7/5,21:30:00,24.4 ,69.6 ,23.3 ,22.1 ,24.6 
2003/7/5,21:45:00,24.4 ,69.5 ,23.3 ,22.1 ,24.6 
2003/7/5,22:00:00,24.3 ,69.5 ,23.3 ,22.1 ,24.6 
2003/7/5,22:15:00,24.3 ,69.5 ,23.3 ,22.2 ,24.5 
2003/7/5,22:30:00,24.2 ,69.5 ,23.2 ,22.2 ,24.4 
2003/7/5,22:45:00,24.2 ,69.4 ,23.2 ,22.2 ,24.4 
2003/7/5,23:00:00,24.2 ,69.5 ,23.2 ,22.3 ,24.3 
2003/7/5,23:15:00,24.2 ,69.4 ,23.2 ,22.3 ,24.4 
2003/7/5,23:30:00,24.2 ,69.5 ,23.1 ,21.0 ,24.3 
2003/7/5,23:45:00,24.2 ,69.7 ,23.1 ,21.1 ,24.3 
2003/7/6,0:00:00,24.2 ,70.3 ,23.1 ,21.1 ,24.1 
2003/7/6,0:15:00,24.2 ,70.6 ,23.1 ,21.2 ,24.0 
2003/7/6,0:30:00,24.2 ,70.9 ,23.0 ,21.2 ,23.9 
2003/7/6,0:45:00,24.2 ,71.1 ,23.0 ,21.3 ,23.9 
2003/7/6,1:00:00,24.2 ,71.6 ,23.0 ,21.3 ,23.8 
2003/7/6,1:15:00,24.1 ,71.2 ,23.0 ,21.3 ,23.7 
2003/7/6,1:30:00,24.1 ,70.8 ,23.0 ,21.4 ,23.6 
2003/7/6,1:45:00,24.0 ,70.6 ,23.0 ,21.4 ,23.6 
2003/7/6,2:00:00,24.0 ,70.5 ,22.9 ,21.5 ,23.5 
2003/7/6,2:15:00,24.0 ,70.3 ,22.9 ,21.5 ,23.5 
2003/7/6,2:30:00,23.9 ,70.5 ,22.9 ,21.6 ,23.4 
2003/7/6,2:45:00,23.9 ,70.2 ,22.9 ,21.6 ,23.3 
2003/7/6,3:00:00,23.8 ,70.1 ,22.8 ,21.6 ,23.3 